GFSFLT1_prec_cloud_003.txt.gz
Cloud_Cover
100 100 100 100 100 100 100 100 100 100 100 100 99 100 79 13 6 46 97 73 52 99 48 5 5 0 0 0 0 9 4 5
100 100 100 100 100 100 100 58 61 100 100 100 98 78 68 5 5 27 100 86 15 98 99 44 5 5 5 5 5 5 5 5
100 94 100 100 26 86 93 88 5 5 6 11 30 5 19 98 100 39 5 11 30 100 100 79 23 97 42 5 5 5 5 5
100 100 88 82 84 94 60 5 5 5 5 26 20 5 56 100 92 6 82 88 91 96 100 100 100 63 81 5 5 5 5 5
100 100 68 26 57 86 98 58 5 5 5 5 5 5 5 6 87 72 100 100 100 33 100 100 100 100 72 42 11 6 87 28
100 100 100 78 52 74 27 45 100 100 98 19 6 5 6 88 95 79 92 98 100 100 100 100 100 100 89 96 60 24 100 69
100 100 85 100 100 100 100 79 30 11 52 79 93 100 100 98 99 85 64 41 55 100 100 100 100 100 93 100 100 100 84 74
73 32 99 100 100 100 67 46 88 66 5 5 5 72 97 100 100 100 100 100 100 100 100 100 100 100 100 100 100 100 100 99
51 92 44 96 27 6 5 97 64 7 15 5 5 5 5 64 100 100 100 100 100 100 100 100 100 100 100 100 100 100 100 100
94 100 98 77 14 5 96 99 32 5 5 6 12 48 85 99 80 100 100 100 100 100 100 100 100 100 100 100 100 100 100 100
50 63 31 5 5 29 99 89 5 4 5 35 100 100 100 100 94 100 100 100 100 100 100 100 100 100 100 100 100 100 100 100
71 62 76 51 65 100 74 97 32 5 96 92 100 100 100 100 100 100 100 100 100 100 100 100 100 100 100 100 100 100 100 97
93 38 74 92 44 61 47 66 100 100 91 98 100 100 100 100 100 100 100 100 100 100 100 100 100 100 100 100 100 99 86 100
100 100 99 52 5 68 100 100 100 95 100 91 88 85 98 96 100 92 100 100 100 100 100 100 100 100 100 100 100 100 100 100
100 100 93 97 100 100 99 100 100 100 96 52 99 100 89 67 71 12 83 98 98 100 100 100 100 100 100 100 100 100 80 11
100 100 100 100 90 100 100 100 97 100 77 100 29 6 9 5 5 21 100 98 92 100 99 81 86 100 100 100 43 6 35 6
95 6 67 65 92 92 66 82 5 44 100 100 100 100 100 100 100 100 100 100 88 95 100 100 100 100 24 4 5 5 5 5
15 85 66 10 87 98 14 5 5 90 100 100 100 100 100 100 100 100 100 100 100 100 100 98 38 0 0 4 5 5 5 5
36 34 93 85 34 11 5 7 76 100 100 95 79 100 100 100 100 100 100 100 100 100 66 5 0 2 5 2 4 5 5 5

GFSFLT1_prec_cloud_006.txt.gz
Cloud_Cover
100 100 100 100 100 95 70 35 37 62 64 32 8 5 10 5 1 9 94 100 67 12 95 100 80 100 93 17 5 5 5 5
100 100 100 86 13 6 8 5 5 5 5 5 5 5 5 5 5 5 5 5 6 5 5 29 69 64 10 22 5 5 5 5
0 20 71 9 16 18 5 2 5 5 62 11 13 60 6 8 7 5 20 12 44 70 28 5 5 39 69 55 8 40 36 25
3 5 5 5 14 48 28 5 5 5 88 64 64 19 29 18 41 5 5 35 44 31 66 56 57 90 99 32 63 100 99 82
100 69 28 5 5 5 5 5 59 20 7 35 5 5 5 5 5 5 2 4 4 5 5 7 39 78 82 94 68 88 100 60
100 82 59 5 43 5 6 6 52 100 100 100 100 100 100 100 41 5 5 5 5 5 5 5 5 5 24 86 100 83 93 65
57 13 23 19 7 80 35 55 100 98 100 98 100 84 61 9 14 5 19 32 36 100 98 98 100 95 67 48 96 100 100 80
52 5 5 36 76 44 97 100 100 66 85 100 100 19 5 5 5 5 7 60 99 100 48 98 100 97 100 100 97 25 88 100
5 5 5 5 9 48 60 7 46 7 42 83 24 5 5 5 5 12 17 21 94 95 100 100 100 100 87 100 99 100 100 99
47 48 5 5 5 59 96 54 5 5 6 5 5 5 6 56 51 40 60 100 100 100 100 100 100 100 100 100 100 100 100 100
10 13 5 8 21 20 5 56 46 7 5 4 6 6 5 5 5 5 12 93 100 100 100 100 100 100 100 100 100 100 100 100
16 21 7 41 34 56 58 48 31 52 87 93 28 5 5 5 5 5 62 99 100 100 100 100 100 100 100 100 100 100 100 100
5 5 8 61 42 5 37 98 89 36 17 5 5 5 5 21 5 50 100 100 100 51 84 100 100 100 100 100 100 100 100 100
54 100 99 38 95 99 58 5 8 5 0 5 4 5 78 84 23 99 100 100 100 100 100 100 100 99 100 100 100 100 100 100
100 41 84 100 30 5 7 9 4 5 4 5 5 15 95 95 90 52 100 100 100 100 100 100 100 100 100 100 100 100 100 100
44 58 42 53 5 5 2 3 5 1 0 4 6 65 100 95 97 82 100 100 100 100 100 100 100 100 100 100 100 40 10 5
100 91 6 5 37 15 4 5 5 0 88 100 100 100 100 100 100 100 100 100 100 100 100 100 100 100 99 11 5 5 5 5
5 5 5 5 5 5 5 5 5 5 90 100 100 97 100 100 100 100 100 100 100 100 100 100 100 90 28 5 4 3 5 5
13 47 47 9 40 5 5 5 5 5 38 57 59 94 100 100 100 100 100 100 100 100 100 89 65 28 3 4 5 5 5 5

GFSFLT1_prec_cloud_009.txt.gz
Cloud_Cover
50 6 8 5 5 5 5 5 1 0 0 1 3 5 5 16 94 35 5 5 5 5 5 5 5 7 23 39 15 5 5 0
16 1 1 1 0 0 0 0 0 5 5 5 5 5 3 5 6 25 48 28 5 5 5 5 5 5 5 5 5 5 5 2
4 2 0 1 5 5 1 0 5 5 5 4 0 0 0 1 0 0 1 3 4 4 4 4 3 4 5 5 5 54 36 5
4 2 5 0 1 0 0 0 0 0 1 5 9 2 3 3 36 51 62 34 4 5 5 5 7 43 12 5 5 27 96 58
4 5 5 5 5 5 11 100 100 100 100 100 100 100 100 100 100 100 100 100 100 99 43 25 67 98 95 95 93 58 7 46
98 6 5 27 5 30 55 44 62 58 6 85 89 98 100 100 100 100 100 100 100 95 19 59 100 100 100 100 100 100 100 100
6 62 90 34 11 6 5 92 67 16 5 5 11 60 34 5 7 3 2 1 0 0 4 36 87 37 16 100 100 97 59 100
60 77 31 5 5 5 5 5 5 5 5 6 74 5 5 0 1 1 0 0 0 0 0 0 93 74 97 100 95 100 99 100
56 18 5 5 5 3 5 5 14 5 5 2 1 5 2 3 0 0 0 0 0 0 1 15 94 98 100 100 100 100 100 100
5 5 5 5 4 0 5 4 5 3 0 0 0 3 5 0 0 0 0 0 0 5 5 13 99 100 100 100 100 100 100 100
5 5 5 5 4 4 5 5 6 4 5 4 3 3 0 0 0 0 2 4 8 40 73 97 97 100 100 100 100 100 100 100
5 41 68 11 42 80 5 5 14 5 5 5 2 0 0 0 2 5 5 36 92 100 90 98 100 100 100 100 100 100 100 100
7 77 74 100 79 44 91 80 94 13 5 5 14 1 5 5 5 60 90 100 100 100 84 76 98 100 100 100 100 100 100 100
5 46 58 90 65 99 70 50 34 10 73 39 1 0 0 5 50 100 97 100 100 100 100 91 99 100 88 62 31 46 81 98
99 100 95 100 97 100 98 6 55 32 5 47 37 5 5 65 100 100 99 100 100 100 100 100 100 100 100 100 100 88 97 100
53 92 18 35 48 20 86 48 11 99 37 45 24 63 83 100 77 100 100 100 100 100 100 100 100 100 99 81 100 100 100 100
46 100 52 6 58 91 46 36 6 5 23 18 93 100 100 100 100 100 100 100 100 100 100 100 100 100 100 100 79 100 100 88
91 92 99 100 100 99 100 90 5 5 7 16 49 87 81 100 100 100 100 100 100 100 100 100 100 100 100 100 94 62 5 5
100 100 94 100 97 100 95 98 100 85 77 99 100 100 100 100 100 100 100 100 100 100 100 100 100 100 99 50 10 5 5 5

GFSFLT1_prec_cloud_015.txt.gz
Cloud_Cover
0 0 0 0 0 0 0 0 5 5 5 5 5 2 0 4 5 0 0 0 0 0 0 0 0 0 0 0 1 2 4 1
0 0 0 0 0 0 0 5 5 5 5 5 5 5 1 0 0 0 0 5 5 0 4 5 5 4 5 0 2 5 4 5
0 0 0 0 5 0 0 5 5 5 5 5 4 5 5 5 16 58 8 5 5 5 4 4 3 2 0 0 0 0 5 5
0 0 0 0 2 0 0 0 1 3 0 5 4 13 43 36 9 5 5 5 5 0 0 0 0 0 0 0 0 0 3 5
0 0 0 0 0 0 5 5 5 5 11 9 5 21 32 5 5 5 5 5 5 5 4 0 0 0 0 0 0 1 5 5
5 5 0 1 5 57 91 100 97 10 5 5 6 72 5 12 18 5 5 5 5 5 5 0 0 0 0 0 0 0 5 57
5 31 59 60 97 97 21 73 18 77 87 86 82 27 74 70 84 76 5 17 5 4 5 5 3 0 1 18 65 84 100 75
6 91 100 100 68 35 87 97 100 86 87 85 100 100 41 5 41 24 7 7 21 41 8 5 2 22 60 87 85 100 100 100
57 6 24 8 79 100 41 27 62 72 100 100 100 99 87 88 12 95 97 94 61 58 18 5 23 14 32 82 100 100 100 100
5 5 5 58 80 91 100 100 100 72 5 5 87 89 39 64 91 100 100 95 22 5 5 5 93 100 100 100 99 95 96 100
23 39 66 93 99 100 78 55 5 5 5 24 90 95 88 100 100 68 38 72 97 90 68 100 98 99 100 100 100 97 100 100
100 49 51 66 48 82 16 5 5 5 95 100 100 95 88 96 46 65 32 24 65 63 49 46 88 100 100 100 100 100 100 100
25 17 56 5 5 5 5 5 6 94 100 100 100 100 99 100 100 91 71 96 35 94 90 94 100 100 100 100 100 100 100 100
55 66 5 5 5 44 93 93 84 100 100 100 100 100 84 66 96 99 93 83 100 100 87 88 100 100 100 100 100 100 100 100
6 29 49 95 100 100 100 100 100 100 100 100 100 96 27 89 100 100 97 99 100 100 87 100 99 100 100 100 100 100 96 100
31 31 74 100 99 92 96 100 100 100 88 64 98 97 100 100 98 98 100 100 100 100 88 100 100 100 100 96 99 100 100 100
93 100 100 87 79 100 100 100 100 100 100 100 100 100 98 22 5 5 55 61 100 100 100 100 100 100 99 99 97 85 100 100
90 60 65 100 100 100 100 96 82 100 100 100 88 38 5 63 49 88 5 5 5 5 5 5 5 14 56 80 97 83 81 92
100 87 98 100 100 64 99 18 21 100 71 8 47 41 22 5 5 6 5 5 5 8 46 27 5 5 5 5 15 56 96 100

GFSFLT1_prec_cloud_018.txt.gz
Cloud_Cover
0 0 0 0 0 0 0 0 3 5 5 5 5 5 5 5 5 5 0 3 2 0 0 0 0 0 4 3 5 5 5 2
0 0 0 0 0 0 4 5 5 5 5 5 5 5 5 3 5 5 5 5 5 5 4 5 30 52 9 5 5 5 4 0
0 0 0 0 0 4 5 5 9 26 5 5 5 5 5 5 7 14 5 5 6 8 5 10 5 6 72 78 5 5 5 0
0 0 0 0 0 5 41 64 32 5 5 5 8 81 92 89 88 83 28 21 62 80 5 5 18 26 5 6 7 60 19 53
2 0 0 4 5 5 5 5 10 33 5 5 56 95 79 21 6 5 11 75 24 5 17 51 6 5 8 9 15 37 5 79
1 5 5 5 5 5 5 5 32 70 89 94 29 5 5 6 75 100 100 5 5 6 13 5 5 5 5 5 5 6 32 87
5 5 6 30 35 66 69 29 76 78 98 16 29 36 79 38 58 7 5 5 28 100 100 89 55 5 12 67 100 75 94 92
5 6 19 5 13 20 62 71 76 96 40 48 60 89 57 15 6 5 5 72 100 72 62 65 9 78 98 82 77 99 100 100
5 5 5 24 36 12 12 90 56 8 39 60 18 5 42 69 23 97 100 100 100 15 15 51 97 100 100 69 82 67 96 96
5 5 5 5 22 22 5 6 29 6 9 5 9 41 96 100 100 100 100 93 75 98 90 100 94 91 100 100 100 100 100 100
5 5 7 13 5 5 6 5 11 40 16 5 9 6 25 97 100 100 100 58 90 97 100 100 100 100 99 97 95 99 100 83
39 92 95 43 47 44 28 15 36 32 6 8 46 100 100 100 100 85 94 91 82 91 91 100 100 95 100 100 100 100 100 100
99 99 85 28 44 13 5 5 5 24 79 100 100 100 100 100 64 97 24 74 80 71 100 100 88 100 100 100 100 100 100 100
44 11 32 38 40 28 5 6 65 100 100 100 99 100 99 78 80 90 100 99 97 100 100 100 100 68 100 100 100 99 100 100
84 49 42 84 32 84 92 98 100 100 83 75 98 100 96 79 100 100 86 80 94 99 100 99 98 90 92 100 100 100 100 100
8 46 70 80 99 100 100 100 100 95 100 100 98 9 14 25 72 77 90 51 20 11 5 5 5 18 20 30 75 78 83 87
98 47 99 100 100 100 100 100 100 100 93 18 30 52 91 95 98 85 15 5 5 5 5 5 5 42 26 6 5 5 5 5
49 99 100 100 100 100 100 100 33 5 13 82 84 85 61 18 5 70 47 5 5 5 5 5 5 5 5 5 5 2 5 24
100 100 100 98 100 100 74 57 23 11 79 100 100 81 64 78 96 97 5 5 5 5 5 36 64 86 5 5 5 13 96 100

GFSFLT1_prec_cloud_024.txt.gz
Cloud_Cover
94 21 9 0 0 0 0 5 7 7 5 4 5 5 5 12 99 7 5 5 5 11 5 5 5 5 5 5 5 5 5 5
1 1 0 0 0 0 0 0 5 5 5 41 95 17 72 26 73 76 5 74 98 5 5 5 5 5 5 5 3 5 5 5
0 0 0 0 0 0 5 53 99 10 73 74 71 98 46 56 76 66 5 99 80 18 5 24 4 5 5 5 4 2 5 4
0 0 0 0 4 8 83 72 5 67 34 5 5 5 34 62 79 70 100 45 80 50 5 5 5 5 5 5 5 5 4 5
0 0 0 5 5 12 5 5 5 4 5 2 5 5 5 9 5 7 5 26 92 59 60 50 5 5 5 11 5 5 5 5
0 0 0 1 5 5 5 5 5 5 5 5 8 48 50 27 83 100 100 100 100 100 100 51 35 92 99 58 94 100 100 98
0 0 1 0 3 2 1 0 5 6 9 27 99 100 100 100 100 100 100 100 100 100 100 100 95 81 100 100 100 99 32 24
0 4 5 5 19 5 14 74 100 100 99 100 100 100 100 100 100 100 80 77 96 100 100 100 100 89 100 100 100 100 100 25
2 5 13 43 41 41 95 100 100 100 100 100 100 100 100 100 82 100 100 100 100 100 98 81 100 100 66 91 100 100 83 93
8 57 11 8 78 95 46 72 100 100 100 100 100 100 100 100 100 95 50 6 5 5 5 5 12 98 68 100 85 100 90 40
29 25 63 54 22 100 100 100 100 100 100 100 100 100 100 73 6 3 2 4 3 5 50 5 7 92 100 25 59 93 6 6
9 13 20 100 100 100 100 98 94 64 95 95 43 5 3 18 27 5 5 5 5 5 5 8 96 82 97 100 100 98 98 7
6 77 78 84 86 8 77 100 82 33 6 5 5 5 5 5 5 2 5 5 46 44 24 27 68 58 47 100 97 7 5 5
8 80 70 36 8 5 20 10 5 5 5 5 5 5 5 5 2 5 5 5 5 14 92 82 67 67 5 32 5 38 6 4
40 52 25 5 5 10 84 26 78 7 5 5 5 5 5 5 3 5 5 8 31 6 5 5 5 5 5 5 13 5 2 3
5 19 99 16 91 68 6 43 75 15 5 4 5 4 82 5 3 5 5 95 79 5 5 5 5 5 7 72 14 5 5 0
28 85 5 6 77 76 93 98 6 27 61 9 5 96 100 80 8 5 59 5 5 5 5 5 5 54 63 5 5 5 5 5
6 5 76 98 85 81 12 98 100 31 94 76 100 68 5 5 5 5 43 5 5 24 48 96 45 5 5 5 5 5 5 5
15 74 95 83 41 5 19 55 5 21 22 88 50 100 57 5 3 8 34 5 40 64 100 91 5 5 5 5 5 10 5 5

GFSFLT1_prec_cloud_030.txt.gz
Cloud_Cover
1 0 1 4 5 5 17 85 32 62 5 5 49 100 99 99 14 5 5 5 31 72 5 44 19 5 5 1 0 0 0 2
0 0 0 5 52 66 44 75 79 63 92 97 22 68 76 75 13 2 5 5 33 73 98 28 5 4 5 5 5 4 0 4
0 0 5 4 8 12 1 0 59 79 100 96 100 100 95 18 0 5 8 73 94 51 8 30 50 4 1 0 3 4 5 5
1 2 29 40 43 5 0 4 5 6 74 88 24 14 54 78 93 80 31 5 5 2 0 0 2 1 0 0 0 0 0 2
6 3 0 0 0 0 0 5 5 16 10 5 5 14 89 88 86 65 10 5 5 0 0 1 0 2 4 2 4 5 56 88
100 100 100 0 0 0 0 0 0 0 5 29 97 100 100 97 100 100 100 100 100 100 100 100 100 99 22 5 3 5 2 36
66 78 13 0 1 0 0 0 0 2 5 62 100 89 88 100 100 100 100 100 99 91 86 68 10 4 3 2 5 5 5 6
42 29 22 3 3 5 4 4 4 67 80 50 54 31 24 27 20 39 25 60 38 5 5 5 5 5 4 5 5 6 5 25
97 80 4 0 1 5 5 98 100 100 100 100 100 100 99 100 100 44 62 8 5 3 4 5 1 5 5 5 5 7 10 5
50 39 5 5 5 5 5 5 5 5 5 5 8 10 5 23 7 67 85 5 1 0 0 0 0 0 5 5 5 5 5 5
10 9 10 44 14 5 5 5 5 27 77 28 5 5 5 30 23 5 3 0 0 0 0 0 0 0 5 5 5 2 2 4
67 98 96 90 5 7 5 63 53 39 80 5 5 5 5 5 5 5 0 0 0 0 0 2 0 5 5 4 5 1 5 5
16 97 76 5 5 5 5 5 20 5 5 5 1 5 4 2 3 0 0 1 40 50 28 27 73 60 52 2 0 5 2 4
65 65 90 77 58 5 38 63 58 5 5 4 5 5 32 17 5 5 5 22 100 99 100 100 100 100 100 79 1 4 88 90
89 77 93 82 34 72 85 79 5 5 5 27 99 100 61 98 100 92 46 67 84 100 100 100 100 98 100 5 5 100 71 5
97 100 90 97 83 93 28 5 6 67 100 100 61 81 100 100 20 13 25 92 99 100 100 100 100 95 100 7 47 50 5 5
38 98 100 100 64 5 5 25 100 100 98 5 74 99 94 0 0 0 5 99 100 100 100 100 100 36 100 7 5 5 5 5
63 89 15 62 54 14 96 95 46 20 6 5 3 0 0 3 0 0 42 26 78 100 100 100 90 100 100 34 5 5 5 6
5 5 5 10 43 49 8 5 20 42 24 3 0 0 5 4 2 5 70 100 99 100 100 100 98 100 42 5 5 14 49 11

GFSFLT1_prec_cloud_033.txt.gz
Cloud_Cover
72 100 50 56 34 48 60 78 100 100 100 100 100 71 11 1 2 5 5 1 3 5 6 64 91 99 13 13 5 4 0 0
5 5 4 1 5 87 100 100 100 51 47 98 82 49 5 5 5 5 4 54 99 86 46 5 9 4 5 5 5 3 0 0
6 0 2 44 98 46 42 8 74 97 75 40 60 5 5 5 5 3 5 42 8 0 0 1 24 15 4 1 0 0 0 2
5 5 40 46 4 2 4 2 0 0 4 5 5 5 5 5 16 10 5 5 1 0 0 2 1 1 0 0 0 0 0 0
85 7 5 5 23 1 1 0 0 0 2 2 2 38 8 7 4 1 2 2 4 5 5 5 5 12 4 5 2 0 0 5
81 14 10 6 5 6 5 5 5 4 78 100 98 92 100 100 100 98 100 100 100 100 100 100 94 90 52 0 0 2 5 14
100 100 100 98 86 97 96 52 5 31 82 100 100 100 100 100 100 100 100 100 100 73 13 38 6 0 0 0 0 5 5 5
100 100 100 100 100 93 8 5 5 91 100 100 100 100 100 100 100 100 100 67 56 74 3 0 0 0 0 0 5 5 5 3
100 100 100 100 97 7 6 21 99 100 100 100 100 100 100 100 100 98 8 4 0 0 0 0 0 0 0 0 0 0 0 0
5 5 66 5 5 10 88 93 100 100 100 100 100 92 95 23 5 5 5 5 4 0 0 3 5 5 0 5 3 5 0 0
0 4 5 38 68 7 5 5 5 16 34 17 5 5 5 5 5 5 5 4 1 4 33 62 95 84 30 41 64 21 11 5
60 68 34 64 19 26 76 5 5 19 5 5 11 5 5 5 5 5 5 9 86 6 35 100 55 88 100 100 100 100 100 48
33 53 99 89 97 80 57 88 100 12 10 5 5 4 5 5 38 83 99 95 90 70 59 65 99 93 100 100 100 100 100 100
24 31 80 72 95 95 100 81 5 5 5 5 5 5 15 79 84 22 35 4 0 5 28 99 100 100 100 100 100 100 72 26
5 60 96 100 100 96 57 5 5 5 4 5 5 5 6 46 39 1 0 0 0 0 89 100 100 100 100 100 64 5 6 20
95 100 100 100 80 30 5 5 5 5 5 5 5 5 5 0 0 0 1 4 0 30 92 31 100 100 100 100 17 58 5 5
99 100 99 48 5 5 5 5 5 5 5 5 5 5 0 0 0 0 0 4 75 100 100 100 100 100 100 100 65 5 5 5
95 14 5 5 5 56 5 5 5 5 23 6 5 3 0 0 0 5 0 4 99 100 100 100 100 99 100 20 5 5 52 94
5 5 5 5 5 13 24 14 5 5 5 5 5 0 0 0 5 5 48 65 88 100 100 100 96 100 12 7 5 5 5 5

GFSFLT1_prec_cloud_036.txt.gz
Cloud_Cover
100 100 100 100 99 41 21 86 100 100 100 100 100 100 100 100 100 63 79 99 100 82 28 9 7 26 11 9 21 10 3 0
76 53 63 32 67 100 100 100 100 100 100 100 100 100 60 5 5 5 0 0 5 2 5 5 5 4 0 0 0 0 0 0
5 5 21 22 96 93 72 37 52 91 96 6 4 5 5 2 0 0 0 0 3 5 5 5 3 1 0 0 0 0 5 5
5 4 12 54 21 44 86 100 67 2 0 0 3 0 0 0 0 0 0 0 0 1 2 5 0 0 0 0 0 0 0 0
5 5 12 8 19 9 5 4 5 5 5 2 1 0 0 3 5 5 2 4 5 5 5 5 5 5 0 2 0 0 0 2
5 46 45 100 63 99 22 6 9 5 5 64 28 5 5 5 5 5 5 11 6 5 20 5 6 6 5 3 5 4 2 5
12 100 100 100 99 95 100 99 95 100 100 69 70 70 5 5 5 5 5 23 92 93 35 5 5 5 5 5 0 2 5 4
5 5 84 100 100 100 78 42 18 98 47 23 66 8 6 45 44 52 99 94 78 7 5 15 6 4 2 4 4 3 2 2
77 98 88 34 36 20 32 53 72 6 25 97 88 98 100 100 100 48 10 9 63 53 7 5 5 5 5 5 6 54 76 94
84 5 5 5 62 99 87 21 58 69 70 100 98 93 36 5 5 46 22 31 10 5 5 5 5 57 82 17 93 100 92 36
2 4 5 36 32 5 75 47 47 27 47 5 5 3 5 5 5 13 5 5 5 5 5 2 64 66 82 89 100 100 94 100
4 2 4 5 5 48 14 69 62 84 87 33 5 6 5 5 5 5 11 5 5 2 0 1 9 20 15 65 90 100 100 98
5 5 39 60 85 91 98 60 100 74 70 29 21 48 9 5 5 3 2 0 0 0 0 0 2 5 88 86 100 100 100 100
5 8 97 88 83 100 100 97 10 5 5 9 5 5 5 2 0 0 2 1 2 0 5 10 59 100 99 97 73 100 100 96
89 100 90 66 100 100 59 38 60 5 5 5 5 5 5 3 5 5 5 5 3 2 30 78 96 80 20 44 80 91 92 92
79 76 89 78 100 99 97 50 5 5 5 5 5 5 5 5 6 44 5 0 0 4 100 100 81 42 92 77 35 85 79 5
77 100 86 100 84 58 22 15 5 5 5 5 5 5 6 48 32 0 2 4 4 98 75 100 100 100 88 88 78 5 5 8
96 96 80 47 8 93 63 26 30 6 5 16 81 100 94 6 4 4 5 6 34 84 99 95 98 90 96 50 5 5 5 5
48 82 100 27 35 79 98 97 64 39 85 100 100 34 5 5 5 4 5 24 100 100 94 75 38 5 5 5 5 5 5 5

GFSFLT1_prec_cloud_039.txt.gz
Cloud_Cover
70 66 100 100 100 100 85 83 100 100 100 100 100 100 100 100 100 100 100 100 100 100 28 0 3 5 5 5 28 36 16 7
100 100 100 59 61 32 75 94 86 83 100 100 100 100 100 100 100 100 100 100 100 98 5 5 5 5 5 5 5 5 5 5
69 77 70 52 44 41 13 55 67 72 72 5 5 72 100 76 100 98 21 1 1 0 0 0 0 0 0 2 4 2 5 4
29 5 4 5 5 5 23 24 5 15 5 1 5 50 5 5 5 8 5 5 0 3 5 2 14 74 93 99 97 78 5 1
5 4 5 5 88 80 56 5 5 5 3 5 61 48 60 82 5 3 5 5 5 5 43 95 100 100 42 8 1 0 0 3
4 5 5 17 68 13 69 42 8 92 99 92 74 77 91 91 54 5 5 7 71 100 100 96 6 5 5 5 0 0 0 5
3 5 29 25 47 72 62 100 89 74 84 19 5 16 5 4 4 5 46 100 99 68 6 4 2 0 0 5 5 5 6 5
5 8 92 100 97 98 50 73 84 80 72 78 27 5 17 5 5 39 78 16 4 5 5 5 5 5 3 5 18 5 48 95
20 99 100 96 8 7 8 32 69 61 29 82 76 79 92 5 14 3 5 5 5 5 6 5 5 5 5 5 5 5 11 42
40 88 51 0 5 5 5 6 26 79 100 100 100 100 10 5 5 5 7 40 89 79 8 5 1 0 0 1 5 6 25 89
5 4 0 0 2 5 8 94 100 100 100 98 89 6 5 5 16 56 61 31 5 5 0 0 2 0 5 81 11 74 56 100
0 0 2 5 5 5 62 77 95 100 100 100 30 5 5 5 8 5 5 3 4 1 1 0 0 6 98 78 35 83 100 63
2 5 5 5 5 45 86 89 100 100 100 21 5 5 5 5 5 3 5 5 1 5 0 0 5 98 100 42 100 99 100 100
5 5 16 65 86 94 61 72 100 100 9 5 5 5 5 5 5 5 5 5 4 5 5 10 27 97 100 84 63 65 6 5
5 20 100 100 100 54 83 100 77 6 36 8 5 8 38 8 6 27 5 5 5 5 26 96 75 63 41 15 25 5 5 5
5 69 100 97 86 99 88 7 8 90 76 41 5 5 23 56 97 38 15 51 5 3 18 100 55 70 68 76 5 19 35 5
5 86 99 100 100 89 62 85 98 78 69 69 65 78 100 100 100 35 68 7 5 60 100 56 81 86 70 5 5 5 5 5
58 98 99 100 94 100 100 100 100 100 100 100 100 100 100 100 57 14 5 21 32 90 95 99 97 94 11 5 5 5 5 2
96 87 96 90 80 95 100 96 98 100 100 100 100 100 100 47 87 76 12 75 100 100 100 90 79 29 5 5 5 5 3 3

GFSFLT1_prec_cloud_042.txt.gz
Cloud_Cover
100 100 100 85 100 100 100 100 100 100 100 100 100 100 100 100 100 100 100 100 100 100 100 100 100 100 100 100 100 59 31 70
100 99 53 55 86 100 100 100 94 100 100 85 100 100 100 100 100 100 100 100 100 100 100 100 100 2 2 5 2 5 5 5
92 82 48 65 94 100 68 66 35 5 5 5 5 60 96 97 91 34 7 92 91 88 19 63 11 4 22 99 100 100 92 11
100 86 75 83 73 51 12 27 17 5 16 52 20 84 100 100 100 100 100 100 100 95 11 5 5 74 100 100 100 84 4 3
7 1 5 3 5 5 5 5 5 24 75 54 57 45 64 6 5 5 5 2 0 0 5 5 12 96 100 53 6 5 5 5
2 5 5 15 5 5 77 89 93 95 56 8 60 38 5 5 5 5 5 1 3 5 5 5 41 6 5 5 12 6 20 90
2 5 17 5 5 11 89 11 84 55 5 5 9 34 40 5 5 65 5 3 4 5 5 5 5 5 5 5 5 5 38 42
2 5 5 5 5 5 5 5 5 33 26 7 59 31 9 36 83 55 5 3 5 5 4 5 5 5 5 5 53 89 91 97
5 5 5 5 15 50 5 5 5 5 5 51 23 91 61 92 43 5 5 5 5 5 5 5 5 5 5 6 16 67 99 84
5 5 12 63 12 3 4 5 5 5 23 83 95 94 87 96 72 8 76 48 5 5 5 5 5 5 5 5 8 81 96 26
5 5 71 5 0 3 5 5 8 33 68 62 97 100 94 68 5 17 13 5 5 5 5 11 23 5 5 12 36 64 92 94
5 5 5 5 1 5 5 22 36 93 99 100 100 99 98 67 54 9 5 5 5 9 5 5 5 5 66 25 77 92 45 94
5 5 5 5 5 5 5 5 41 100 100 100 100 86 6 5 5 15 5 8 35 5 15 9 5 69 54 98 98 32 91 100
5 5 5 5 67 39 5 43 100 100 100 72 5 5 5 5 25 35 19 53 92 5 5 5 60 98 95 68 60 100 98 100
5 5 5 65 95 12 33 99 87 89 5 5 6 48 72 78 91 49 100 96 28 5 5 15 97 100 99 100 92 97 100 100
5 5 81 83 92 18 100 100 100 17 28 61 30 79 62 74 96 100 100 22 32 9 56 74 27 89 81 91 100 100 100 62
59 5 5 84 79 93 100 92 20 72 86 82 72 76 99 100 100 100 33 18 37 88 70 100 100 100 5 5 5 70 6 5
47 5 5 77 92 100 74 64 100 92 86 79 90 100 100 100 77 21 35 97 69 93 100 78 100 100 5 5 5 5 5 5
5 30 98 99 100 100 97 86 92 97 100 100 100 100 100 99 100 100 100 100 95 100 75 100 100 98 5 5 5 5 7 5

GFSFLT1_prec_cloud_045.txt.gz
Cloud_Cover
98 100 100 100 100 100 100 100 100 100 100 96 100 100 100 100 100 100 100 100 100 100 99 100 100 100 100 100 4 18 27 6
100 100 100 100 100 100 100 92 82 28 7 52 99 100 100 100 98 100 76 76 96 95 100 100 100 82 100 90 4 6 53 49
100 100 99 75 59 99 100 89 100 92 97 14 6 30 65 84 72 53 17 14 7 5 90 10 4 5 5 28 100 100 100 100
49 9 37 91 100 91 100 99 7 17 5 5 10 54 56 59 59 52 41 17 5 5 1 2 5 5 11 29 89 87 44 37
42 78 91 82 72 55 42 5 5 5 5 5 33 12 39 65 13 5 5 5 5 5 0 0 5 5 5 5 5 5 8 75
19 23 52 29 4 5 5 5 5 5 5 6 16 17 31 13 40 5 7 10 12 5 5 5 5 5 5 5 5 18 89 98
1 1 2 0 0 5 5 5 5 3 4 5 5 6 7 11 36 78 84 14 5 7 5 5 24 5 5 5 5 9 97 78
0 0 0 0 5 5 5 5 15 6 16 8 5 5 5 5 32 78 98 77 50 33 5 5 5 5 5 5 3 7 76 73
0 0 0 3 5 5 5 28 97 88 56 6 5 5 38 7 64 97 92 88 91 12 5 5 5 5 5 5 5 90 99 82
0 0 0 0 4 6 16 37 100 92 5 5 5 15 60 100 94 58 97 63 5 5 5 5 5 5 5 5 7 100 55 77
0 0 0 7 20 73 52 38 95 49 5 5 23 92 97 100 98 80 10 27 28 5 5 5 5 5 5 14 53 95 6 58
0 12 25 34 61 54 42 30 12 5 5 48 98 100 100 74 14 5 6 5 60 87 73 57 5 5 7 15 5 47 64 94
20 44 51 37 8 18 27 28 78 10 59 83 100 94 51 5 5 5 5 56 84 69 64 5 5 5 7 6 73 88 89 90
10 34 32 18 14 5 25 24 61 36 22 100 56 89 10 5 5 13 25 58 69 82 19 90 44 13 29 15 97 86 100 100
5 5 5 86 99 87 66 80 57 38 100 99 54 34 35 65 68 58 69 78 90 100 100 100 100 83 88 81 100 100 95 100
5 5 52 46 6 9 82 81 93 34 100 82 90 97 80 71 92 100 100 100 100 100 100 89 99 100 100 37 44 91 100 94
5 5 15 49 8 5 84 67 87 72 100 100 100 100 94 100 100 100 100 100 100 96 100 100 100 100 62 5 5 19 5 22
8 47 91 31 16 62 70 81 100 100 100 100 99 100 100 100 100 96 100 100 100 100 100 100 100 100 22 5 5 1 5 35
78 58 95 5 16 68 70 97 100 100 100 99 100 100 100 100 100 100 100 100 100 100 100 100 100 98 89 5 5 3 45 91

GFSFLT1_prec_cloud_048.txt.gz
Cloud_Cover
99 100 100 100 100 100 98 86 96 97 87 78 80 73 27 76 94 38 100 100 65 77 91 100 12 0 0 48 79 1 0 0
100 100 100 100 100 100 100 100 100 100 71 87 23 5 5 22 17 5 5 4 31 74 15 26 3 1 0 2 5 5 5 5
100 100 100 78 36 44 100 100 95 36 24 6 5 5 4 0 3 5 4 6 5 5 5 5 5 4 5 3 0 2 3 5
100 100 100 100 100 100 100 73 10 51 90 5 5 0 0 5 5 5 7 59 5 5 5 5 5 5 5 3 0 0 0 5
100 100 96 70 52 100 83 27 4 33 5 3 0 5 5 5 6 63 3 5 5 5 5 5 5 36 5 0 0 0 0 2
66 85 90 44 86 1 1 16 0 5 5 5 5 34 96 100 90 21 18 7 5 6 5 5 5 5 5 4 5 5 5 5
98 100 100 24 1 42 87 0 1 5 5 5 5 37 17 34 5 5 5 39 89 38 5 5 5 5 2 5 5 5 5 5
2 5 51 99 2 0 0 0 6 5 5 1 0 7 5 5 6 52 42 96 98 88 15 0 0 4 5 5 5 5 4 5
0 3 2 0 0 0 0 3 5 4 27 9 3 5 5 8 13 84 67 99 100 46 2 2 4 5 5 5 5 5 3 80
0 0 0 0 0 0 5 5 6 5 100 100 33 20 22 73 87 100 100 75 8 5 5 5 5 5 5 5 5 5 27 24
0 0 0 0 0 0 3 8 100 100 100 59 20 25 89 72 97 100 100 94 5 5 6 21 17 5 5 5 5 44 60 5
0 0 23 2 96 74 21 10 100 100 100 7 36 75 90 100 100 100 22 50 5 5 71 44 5 44 46 5 31 12 5 5
0 0 99 100 100 100 100 85 100 100 99 69 95 96 100 100 98 99 100 57 22 90 61 5 65 20 34 72 37 5 5 9
4 32 100 100 100 93 100 91 98 86 82 86 100 100 100 100 100 100 81 92 100 53 61 100 88 86 94 100 83 37 24 96
36 100 100 100 100 100 100 100 100 96 99 100 100 100 99 100 98 88 99 81 80 93 100 100 91 98 92 83 44 10 84 88
26 91 84 42 69 100 100 100 78 89 100 100 100 79 100 100 100 95 100 100 100 100 100 100 57 90 88 93 100 95 96 68
5 5 5 23 100 100 100 75 63 100 100 100 100 100 100 86 93 100 100 100 100 100 100 100 100 100 100 100 100 88 41 89
5 5 10 98 100 100 97 65 92 100 100 100 100 100 100 100 100 100 100 100 100 100 100 100 100 100 100 100 63 36 69 5
10 5 5 100 100 100 100 100 100 94 70 100 100 100 100 100 100 100 100 100 100 100 100 100 100 100 100 100 43 5 5 4

GFSFLT1_prec_cloud_051.txt.gz
Cloud_Cover
100 100 100 100 100 100 100 100 100 100 90 100 66 89 100 92 86 99 73 38 10 5 5 5 4 0 0 0 0 0 0 0
100 100 100 100 100 100 100 75 100 100 100 100 100 100 100 100 100 29 5 5 5 2 0 0 0 0 0 2 0 0 5 0
79 91 100 98 76 49 100 100 100 100 99 66 57 98 72 6 52 16 3 4 5 5 5 3 5 5 5 5 5 4 0 0
83 47 66 100 100 100 100 100 100 100 100 100 59 55 42 17 1 0 5 5 5 5 3 1 0 2 5 5 1 0 0 0
32 100 100 95 80 47 59 93 20 16 7 15 16 2 0 0 0 2 0 0 0 0 0 0 4 5 5 0 0 0 0 0
100 99 98 74 76 43 11 5 5 5 1 47 2 1 0 0 0 3 12 33 76 6 5 5 5 1 4 5 5 5 0 0
18 40 30 84 91 20 1 0 0 4 66 5 5 0 0 14 86 97 100 71 51 5 5 5 5 0 0 3 4 4 5 5
62 5 10 4 0 0 0 1 0 10 5 5 5 1 1 9 13 16 92 99 38 60 76 7 5 5 5 5 5 6 47 5
3 2 0 0 0 0 31 100 0 4 3 5 5 5 20 56 91 100 72 71 100 100 100 26 5 5 5 5 6 43 55 5
0 0 0 0 0 0 18 39 0 4 5 7 86 46 18 92 86 89 100 64 94 100 100 100 100 77 38 61 7 25 5 9
0 0 0 0 0 0 0 0 19 42 73 91 100 100 90 98 96 100 100 100 100 100 100 99 91 93 87 62 18 67 99 65
0 0 0 0 0 0 0 1 14 99 100 100 100 100 100 100 76 100 100 100 100 100 93 98 93 85 99 89 96 96 68 19
0 0 0 0 1 73 49 99 100 100 100 100 100 100 100 100 100 100 100 100 100 90 99 91 61 100 100 100 81 53 23 87
0 0 3 11 96 99 100 100 100 100 100 100 100 100 100 100 100 99 98 76 82 100 98 87 100 97 100 100 100 97 100 100
0 2 5 73 97 100 92 81 100 100 100 100 100 100 100 100 78 92 100 97 97 100 90 98 100 100 100 100 100 100 100 100
0 5 8 94 26 32 39 45 100 100 100 100 100 100 98 100 98 100 100 98 100 100 100 100 100 100 100 100 100 100 100 100
5 5 6 17 84 5 5 91 91 100 100 100 100 100 100 100 100 99 100 100 100 100 100 100 100 100 100 100 100 100 100 82
5 5 5 5 5 5 5 35 94 100 100 100 100 100 100 100 100 100 100 100 100 100 100 100 100 100 100 100 100 100 100 88
90 100 7 5 5 5 39 94 100 100 100 100 100 99 100 100 100 100 100 100 100 100 100 100 100 100 100 100 100 100 34 92

GFSFLT1_prec_cloud_054.txt.gz
Cloud_Cover
59 99 100 100 100 100 100 100 100 100 100 100 100 100 100 100 100 100 100 86 98 94 40 87 76 11 22 9 0 0 0 0
100 100 98 15 100 100 100 100 100 100 100 100 100 100 100 100 100 100 100 100 100 71 56 14 5 0 0 0 0 0 4 0
100 100 100 100 100 100 100 100 100 100 100 100 100 99 90 90 82 100 50 84 47 37 4 0 0 0 1 5 5 5 0 0
100 100 100 100 100 77 100 100 100 100 100 100 100 100 100 83 68 52 16 23 4 5 0 0 0 4 5 5 4 0 0 0
38 100 89 29 8 9 59 71 70 59 26 10 6 13 7 5 5 1 0 4 5 0 0 5 4 0 5 5 5 3 0 3
100 100 100 100 96 51 98 97 59 52 6 7 10 8 5 5 0 0 0 0 2 5 3 5 5 7 78 67 99 4 6 5
26 16 34 81 63 6 12 70 41 50 5 2 3 37 5 5 1 0 3 5 5 25 74 67 9 20 64 89 94 99 6 5
100 56 11 50 31 4 5 29 21 0 17 1 5 5 5 5 5 5 27 19 10 100 97 6 56 63 66 99 76 16 38 5
100 34 4 5 8 26 10 0 0 0 2 5 2 5 14 39 81 100 100 100 100 100 100 100 100 100 59 5 5 5 12 5
5 3 5 16 1 5 5 0 0 0 5 9 8 88 84 74 100 100 100 100 100 100 100 100 100 100 93 81 34 26 71 23
3 1 2 0 0 0 0 0 0 1 5 35 91 100 99 100 100 92 100 100 100 100 100 100 100 70 100 77 94 75 55 68
0 0 0 0 0 0 0 0 0 14 60 100 100 100 98 95 100 100 100 100 100 100 100 100 52 45 94 92 89 56 37 48
0 0 0 0 0 0 0 0 8 46 54 6 72 64 100 93 96 100 100 100 100 100 92 42 18 89 99 92 90 47 65 66
0 0 0 0 3 3 4 8 54 99 91 72 52 44 38 100 77 100 100 99 72 76 34 97 82 82 94 86 77 93 100 100
0 0 1 2 12 28 31 100 55 96 95 100 100 100 100 94 46 100 97 31 71 52 89 80 61 92 100 100 100 100 100 100
0 4 5 5 10 47 70 69 84 88 100 85 100 93 47 25 96 100 83 94 76 100 82 100 98 98 100 100 100 100 100 100
2 6 5 5 1 5 5 6 99 100 95 9 31 93 95 98 100 96 100 100 92 100 100 94 83 100 100 100 100 100 100 100
6 5 5 6 16 25 15 5 5 38 76 98 80 100 92 99 75 100 100 100 98 100 99 100 100 100 100 100 100 100 76 8
1 3 5 4 5 5 5 5 26 95 100 98 90 93 96 97 100 99 100 99 99 100 96 100 100 100 100 90 45 5 5 5

GFSFLT1_prec_cloud_057.txt.gz
Cloud_Cover
100 100 100 100 100 100 100 65 84 100 94 100 100 100 98 100 81 90 100 100 100 100 100 100 100 93 70 53 80 64 5 0
100 100 100 100 100 100 100 100 100 100 100 100 100 100 100 100 100 100 100 100 100 100 100 100 90 33 96 92 12 0 0 0
100 100 100 100 99 100 100 100 100 100 100 100 100 100 100 100 100 100 82 99 100 91 94 87 42 56 42 0 0 0 2 5
100 79 100 100 100 100 100 100 100 100 100 100 100 100 99 99 88 81 99 96 56 16 47 26 4 0 0 5 4 5 35 70
100 94 100 74 32 27 96 100 98 21 30 42 98 23 23 77 90 63 49 61 6 2 0 4 5 5 5 5 2 5 10 80
99 99 7 57 35 88 96 84 23 56 99 100 100 68 23 70 93 8 4 0 0 5 5 5 7 10 5 3 5 34 31 59
74 98 100 45 26 10 18 8 5 18 77 100 100 97 7 66 96 5 5 5 5 39 85 5 81 94 94 12 16 49 7 28
89 75 28 58 66 61 70 43 27 60 100 100 50 5 34 85 70 5 5 47 73 60 89 100 100 100 100 100 96 89 98 74
18 6 26 32 41 100 76 100 98 100 100 24 3 4 84 94 6 94 94 35 86 100 100 100 95 88 100 98 100 100 82 50
20 3 5 22 87 100 78 100 100 99 71 5 22 0 5 5 25 99 94 98 88 100 100 100 100 100 99 99 86 96 82 84
6 5 2 23 60 27 44 23 5 2 0 0 0 5 5 7 40 100 88 90 100 100 80 100 100 100 100 83 72 38 26 81
4 5 3 0 0 0 0 0 0 0 1 4 14 82 64 5 28 54 41 100 100 100 100 100 99 71 76 97 93 98 80 87
0 0 0 0 0 0 0 0 5 4 5 39 74 93 94 91 100 94 100 63 100 100 44 100 84 97 96 58 92 59 13 75
0 0 0 0 2 3 3 0 2 5 19 96 52 100 85 100 93 100 27 74 95 99 100 89 99 78 91 58 11 78 93 91
0 0 5 3 5 5 5 22 76 93 85 45 100 100 98 97 100 60 99 100 100 81 99 94 100 100 84 93 100 82 75 89
0 0 4 5 5 5 5 10 52 85 63 95 72 99 100 100 100 100 100 76 100 100 94 100 100 88 31 62 42 72 10 1
0 0 4 0 4 5 5 62 57 49 87 93 100 100 100 100 100 100 100 100 100 100 100 100 100 100 100 100 100 10 5 5
0 0 1 5 33 97 96 98 85 94 67 69 100 100 100 100 100 100 100 100 100 100 98 83 96 100 100 98 7 5 5 5
4 5 21 51 90 90 73 49 16 74 85 100 97 100 100 100 99 100 100 100 100 94 52 71 86 95 6 5 5 5 5 5

GFSFLT1_prec_cloud_060.txt.gz
Cloud_Cover
96 51 54 8 63 99 96 97 100 100 100 100 100 100 100 100 82 93 100 94 98 100 90 98 94 98 40 62 98 87 99 46
88 99 100 85 68 100 100 100 100 100 91 79 51 20 100 100 100 100 100 100 100 100 98 100 100 100 100 86 59 75 16 0
100 100 100 100 100 100 100 99 100 100 98 100 100 100 100 100 100 100 100 100 100 100 96 81 75 100 80 8 8 1 0 1
100 100 100 100 100 100 100 74 17 38 100 100 100 100 100 100 100 100 100 100 100 45 59 100 100 33 4 5 1 0 0 2
100 100 100 100 98 99 99 91 68 83 100 99 100 100 100 94 100 87 78 70 33 97 100 63 5 3 4 38 94 71 51 54
26 66 93 76 67 100 100 100 89 97 95 100 97 100 100 77 91 90 100 98 76 9 3 6 36 9 5 95 100 74 83 96
5 14 36 44 78 74 100 100 90 100 100 100 100 100 100 42 86 47 99 62 1 1 5 33 5 20 100 100 100 86 100 94
30 33 54 97 66 50 44 45 100 100 100 100 100 100 100 94 17 14 66 90 5 32 24 85 33 50 100 100 86 100 83 51
57 53 24 36 98 76 9 95 100 100 100 100 100 100 99 16 39 95 98 87 50 14 76 43 100 100 100 100 100 98 95 23
100 100 99 58 35 32 46 96 100 100 100 100 100 100 77 96 7 5 60 73 82 66 73 100 100 98 100 100 100 100 96 44
68 97 45 5 5 24 79 71 99 100 100 100 100 97 22 12 5 100 100 96 96 71 100 85 100 100 100 96 10 93 45 5
45 51 37 5 5 7 61 79 71 41 22 25 28 0 58 49 76 100 93 100 94 100 100 100 100 100 98 5 5 18 7 30
5 1 5 31 35 51 59 74 30 4 0 3 5 5 49 85 94 92 100 100 100 100 100 62 98 100 100 82 24 96 92 100
2 1 4 2 0 15 19 28 48 89 46 98 83 54 5 73 100 68 100 100 100 100 100 100 100 69 45 13 96 100 100 99
2 0 0 0 1 0 46 15 86 54 80 69 74 82 21 100 100 100 100 100 100 100 64 94 100 66 22 76 92 100 96 8
3 0 0 0 4 5 36 66 51 7 44 99 93 93 100 100 100 91 100 100 100 45 100 100 100 97 94 95 100 13 5 4
5 3 2 0 4 5 5 5 5 5 5 11 100 100 100 100 100 100 100 100 100 100 100 100 100 100 100 20 5 5 5 5
0 5 0 0 0 0 2 5 5 12 93 100 100 100 100 100 100 100 100 100 100 98 100 71 100 100 15 5 5 14 5 5
5 5 4 2 3 5 14 67 97 96 100 100 100 100 100 100 99 100 100 100 94 89 89 100 90 24 5 5 40 5 5 5

GFSFLT1_prec_cloud_063.txt.gz
Cloud_Cover
100 98 100 73 53 97 100 100 100 100 100 100 100 100 100 100 100 100 100 100 97 86 59 68 30 7 32 35 14 8 34 26
100 100 100 100 5 7 99 79 100 30 32 100 100 100 100 100 100 100 100 100 100 100 100 100 100 100 100 100 100 64 20 18
41 100 100 95 88 97 91 88 97 100 100 100 97 66 88 98 100 100 100 84 98 100 100 88 100 100 100 100 89 46 7 5
100 100 100 100 100 100 100 100 100 100 72 7 5 12 15 44 63 100 100 100 100 100 100 100 100 95 48 27 14 5 5 8
100 100 100 100 100 100 100 100 100 76 86 52 79 94 50 61 74 96 100 100 100 95 50 79 82 10 5 28 5 36 89 69
100 100 100 100 98 75 79 98 100 79 75 89 96 9 55 91 94 100 100 100 90 52 86 35 5 8 8 71 92 82 94 100
91 94 67 98 89 93 99 52 10 26 26 17 72 64 100 96 100 100 100 100 36 17 55 8 5 70 90 80 82 48 24 97
33 94 96 57 59 88 77 73 98 93 100 100 100 100 100 100 100 100 100 100 88 80 96 94 76 34 73 97 100 100 100 87
5 5 55 5 28 92 100 94 75 71 71 100 100 100 100 100 100 100 100 100 100 100 26 15 57 65 94 100 100 100 100 20
7 24 36 55 46 49 85 35 22 44 97 98 100 100 100 100 100 100 100 99 88 19 17 99 99 100 99 99 100 100 49 70
89 58 7 10 30 41 5 41 83 92 98 100 98 100 100 100 100 100 72 87 92 89 94 100 100 100 100 100 100 99 83 75
100 99 19 5 14 19 43 16 10 28 92 100 100 100 100 100 100 100 90 98 100 100 100 100 100 100 100 100 100 97 67 23
6 5 5 6 5 5 9 90 62 65 76 98 100 100 100 100 100 100 100 100 100 100 100 100 100 100 100 96 83 99 100 99
1 0 1 5 15 28 73 100 100 100 100 100 100 100 100 100 100 100 100 100 100 100 100 100 100 100 100 99 100 97 69 60
0 2 4 5 23 46 48 77 100 100 100 100 100 100 100 100 100 100 100 100 100 100 100 100 100 100 100 100 76 85 92 92
2 0 4 56 5 11 20 48 60 100 100 100 100 100 100 100 100 100 100 100 100 100 100 100 100 100 97 99 88 95 46 38
5 5 5 5 5 5 5 43 53 30 51 99 100 100 100 100 100 100 100 100 100 100 100 100 100 89 99 76 8 46 6 6
3 0 1 9 27 24 55 56 51 39 39 46 69 97 100 100 100 100 100 100 100 100 99 66 80 100 92 21 44 19 17 53
3 4 4 4 5 5 5 5 8 37 84 86 98 100 100 100 100 100 100 100 98 33 92 99 69 74 75 66 54 14 14 31

GFSFLT1_prec_cloud_066.txt.gz
Cloud_Cover
100 100 100 100 100 64 100 100 100 100 100 100 53 96 100 100 100 95 100 100 100 100 100 98 74 15 94 100 100 100 100 100
100 100 100 29 15 32 98 100 100 100 100 100 100 100 100 100 100 100 100 100 100 100 100 86 100 100 100 100 92 100 100 73
100 98 99 100 100 94 14 58 90 99 100 100 100 100 100 100 100 100 100 99 98 76 68 66 95 89 86 83 71 40 5 5
100 100 95 35 51 99 99 37 98 100 100 100 100 100 60 61 90 100 100 100 99 47 91 65 8 5 5 4 5 6 5 5
67 32 98 74 100 100 100 100 100 100 100 100 100 100 80 78 98 91 100 100 84 98 82 91 100 5 5 5 39 5 10 93
100 46 82 100 100 100 90 100 100 53 100 100 100 43 13 62 58 100 100 100 95 98 100 100 100 64 5 6 22 74 21 84
98 96 100 93 84 46 87 6 11 81 42 33 26 9 55 89 89 100 100 100 100 100 100 100 100 100 84 86 81 84 99 100
96 100 100 18 5 11 20 29 10 34 14 43 76 90 94 100 100 100 100 100 100 100 100 100 100 100 73 68 100 72 94 100
5 14 10 39 93 99 19 49 23 74 96 91 81 100 100 100 100 100 100 100 100 100 100 100 100 100 15 93 100 89 96 100
5 5 5 5 5 83 11 15 5 8 51 98 89 100 100 100 100 100 100 100 100 100 100 100 100 97 98 100 100 96 100 100
5 5 5 5 5 5 33 73 5 5 45 100 89 92 84 100 100 100 96 100 100 100 100 96 100 100 100 100 100 100 100 100
100 11 14 35 16 13 34 33 5 5 6 28 54 100 100 100 100 100 100 100 100 100 99 100 100 100 100 100 100 100 100 100
100 100 82 11 5 5 2 0 3 1 3 44 100 100 100 100 100 100 100 100 100 100 100 100 100 100 100 100 100 100 100 92
100 97 12 5 5 41 44 18 18 33 87 100 100 100 100 100 100 100 100 100 100 100 100 100 100 100 100 100 100 100 88 100
5 0 0 0 5 6 42 100 100 100 100 100 100 100 100 100 100 100 100 100 100 100 100 100 100 100 100 100 95 100 100 100
2 0 0 0 5 13 56 100 100 100 100 100 100 100 100 100 100 100 100 100 100 100 100 100 100 100 100 96 100 100 100 86
5 4 5 5 6 37 80 100 100 100 100 100 100 100 100 100 100 100 100 100 100 100 100 100 100 100 100 100 95 100 84 7
1 5 56 74 7 40 68 98 100 100 100 96 93 98 96 100 100 100 100 100 100 99 100 100 100 96 86 77 82 67 16 85
5 8 18 38 24 33 51 64 79 77 84 94 90 93 98 100 100 100 98 100 94 100 97 68 82 53 69 27 19 5 5 5

GFSFLT1_prec_cloud_069.txt.gz
Cloud_Cover
100 100 100 100 99 99 100 100 100 100 100 100 100 100 100 100 100 100 100 100 100 100 98 97 100 100 100 100 100 78 97 98
100 100 100 100 100 100 100 100 100 100 100 100 100 100 100 100 100 100 100 100 100 100 100 100 100 100 100 100 100 97 84 64
100 100 100 100 95 90 59 100 100 100 100 100 100 100 100 100 100 100 100 100 100 100 100 100 99 86 39 46 40 61 20 16
100 98 100 100 96 100 99 94 100 100 100 100 100 100 100 82 97 100 100 100 100 80 29 38 36 62 53 46 32 5 5 5
81 98 91 100 23 27 86 100 91 54 53 36 49 90 96 100 100 100 100 100 74 97 100 83 7 93 81 100 95 56 5 24
100 100 100 100 47 95 15 100 89 87 92 35 85 100 100 100 100 100 100 94 59 95 91 93 42 100 100 100 100 17 100 100
100 99 56 64 24 92 100 94 80 90 44 76 100 98 85 79 85 90 100 100 100 100 96 100 100 100 100 100 100 100 98 100
99 43 53 56 74 44 38 44 4 35 64 20 16 68 41 100 94 100 100 100 100 100 100 100 100 100 100 100 100 100 100 100
100 57 100 93 21 5 5 5 81 96 100 100 96 79 51 68 100 100 88 100 100 100 100 100 100 100 100 100 100 100 100 100
30 98 27 5 5 27 39 57 58 61 98 74 54 47 71 89 97 100 100 100 100 100 100 100 100 100 100 100 100 100 100 100
10 5 5 5 5 5 27 9 54 79 79 96 75 96 100 100 80 98 100 100 100 100 100 100 100 100 100 100 100 100 100 100
28 11 25 5 44 9 36 25 24 49 80 49 91 100 100 100 80 100 100 100 100 100 100 100 100 100 100 100 100 100 100 100
0 4 5 5 5 5 5 20 14 29 41 98 74 100 100 100 100 100 100 100 100 100 100 100 100 100 100 100 100 100 100 100
5 3 5 34 20 2 2 35 60 71 56 84 74 100 100 100 100 100 100 100 100 100 100 100 100 100 100 100 100 100 96 82
5 3 3 0 0 0 0 4 11 68 70 81 81 100 100 100 100 100 100 100 100 100 100 100 100 100 100 100 100 100 100 100
98 100 88 84 2 18 68 68 61 46 62 90 100 100 100 100 100 100 100 100 100 100 100 100 100 100 100 100 100 100 100 99
100 100 100 100 48 99 100 100 100 100 100 100 100 100 100 100 100 100 100 100 100 100 100 100 100 100 100 100 100 73 78 100
91 100 94 39 88 100 100 100 100 100 100 100 100 100 100 100 100 100 100 100 100 100 100 96 64 56 64 43 96 100 100 97
1 6 59 54 100 100 100 100 100 100 100 100 100 100 98 100 100 100 100 100 100 99 89 68 70 64 99 100 100 71 72 80

GFSFLT1_prec_cloud_072.txt.gz
Cloud_Cover
11 34 46 100 100 100 100 100 100 100 100 100 100 100 100 100 100 100 100 100 100 100 100 100 100 100 100 100 100 100 100 100
5 52 76 83 85 100 100 100 100 100 100 100 100 100 100 100 100 100 100 100 100 100 66 90 100 100 100 100 100 100 100 94
97 97 83 100 89 87 94 100 100 100 97 100 100 100 99 100 100 100 100 100 100 100 100 100 100 100 100 100 95 97 86 38
22 58 99 100 79 98 100 100 100 97 72 5 65 100 100 100 100 100 100 100 100 100 100 96 45 96 82 40 12 72 87 84
92 100 38 100 100 100 22 32 33 77 100 98 10 100 100 100 100 100 100 100 100 91 96 89 92 95 100 64 93 97 80 44
100 100 100 100 100 100 100 92 70 87 84 100 77 70 94 87 61 100 95 72 100 100 81 98 96 100 100 100 100 100 100 36
100 100 100 100 100 100 100 22 5 99 100 100 100 100 100 100 100 51 100 97 99 100 100 100 100 95 93 97 100 100 100 98
100 100 100 100 100 100 100 100 97 100 100 100 100 100 100 95 100 99 100 100 89 51 72 90 100 100 100 100 100 100 100 100
100 78 59 52 57 93 100 100 14 9 86 100 57 32 5 20 91 39 81 100 99 100 87 100 100 100 100 100 100 100 100 100
29 64 94 19 7 5 5 34 5 5 7 72 5 5 5 5 5 5 53 100 85 100 100 100 100 100 100 100 100 100 100 100
1 11 9 59 83 57 5 5 5 5 5 5 34 30 34 14 6 44 100 91 100 100 100 100 100 100 100 100 100 100 100 100
3 3 72 93 96 96 83 5 39 51 5 5 52 98 100 100 96 25 50 41 90 100 100 100 100 100 100 100 100 100 100 100
0 5 5 5 26 95 83 86 59 5 33 100 46 17 79 100 100 100 91 94 100 100 100 100 100 100 100 100 100 100 100 100
0 0 4 3 2 11 41 100 100 96 98 99 57 74 97 66 100 100 100 100 100 100 100 100 100 100 100 100 100 100 100 100
0 0 0 0 1 3 2 2 20 54 25 56 91 100 100 100 100 100 100 100 100 100 100 100 100 100 100 100 100 100 100 100
1 4 5 64 21 90 68 38 5 8 82 100 100 100 100 100 100 100 100 100 100 100 100 100 99 100 100 100 100 100 99 100
5 0 0 16 96 100 99 48 75 79 100 100 100 100 100 100 100 100 100 100 100 100 100 100 100 100 96 65 73 59 65 62
3 0 0 2 5 0 15 74 100 100 100 100 100 100 100 100 100 100 100 86 94 99 61 87 62 27 16 40 93 100 100 100
5 12 1 0 0 3 90 94 100 100 100 100 100 100 100 100 100 100 100 99 87 91 91 79 29 91 99 100 100 100 100 100

GFSFLT1_prec_cloud_075.txt.gz
Cloud_Cover
50 99 92 100 100 100 100 100 100 100 100 100 100 90 100 100 100 100 97 100 100 100 100 100 100 100 100 100 100 100 100 100
64 51 84 64 89 100 100 100 100 100 100 100 100 100 100 100 100 100 100 97 100 100 100 100 98 92 100 100 100 100 100 100
100 32 25 69 67 100 100 100 100 100 100 100 100 82 77 100 100 100 100 100 100 100 100 100 90 100 100 100 100 100 100 100
100 97 97 33 19 100 100 100 100 100 100 100 100 100 96 99 100 100 100 100 100 100 100 100 100 100 100 100 100 97 99 98
100 67 82 2 4 100 100 100 100 100 100 100 100 100 100 96 100 100 100 100 100 100 100 100 100 100 100 100 86 100 99 89
92 100 100 100 99 97 56 96 100 100 100 100 87 30 55 96 98 100 100 90 100 100 59 99 100 100 100 100 100 100 100 100
5 5 57 100 97 73 90 48 61 92 30 12 1 5 88 52 81 5 43 64 88 100 97 82 96 92 97 67 100 95 87 100
75 3 84 75 21 98 100 100 92 61 7 26 5 5 4 5 5 90 9 33 60 100 100 100 94 100 100 91 100 100 100 100
100 60 92 94 9 3 0 48 98 100 51 57 97 21 8 8 75 5 5 5 71 100 100 100 100 100 100 100 100 100 100 100
4 58 49 5 87 100 100 100 100 100 100 97 88 93 14 5 5 15 52 62 94 100 100 100 100 100 100 100 100 100 100 100
2 2 4 31 5 5 37 33 14 7 37 30 19 65 14 5 28 43 51 99 100 100 100 100 100 100 100 100 100 100 100 100
0 0 1 4 5 20 7 63 15 76 100 100 100 33 34 95 100 100 100 100 100 100 100 100 98 100 100 100 100 100 100 100
0 0 0 0 45 100 100 81 100 100 100 100 100 5 75 100 100 100 100 100 100 100 100 87 100 100 100 100 96 100 100 100
7 0 0 0 0 2 90 99 99 100 100 100 100 100 97 94 100 100 100 100 100 100 100 100 100 100 100 100 100 100 100 100
27 57 3 0 0 0 0 10 13 40 79 94 99 100 100 100 100 100 100 85 100 100 100 98 98 100 100 100 78 88 100 100
4 5 4 0 0 3 10 61 90 78 100 100 100 100 100 100 100 100 100 100 100 100 100 100 100 100 100 100 100 100 100 100
0 1 5 5 87 16 42 74 85 100 100 100 100 100 100 100 100 100 100 100 100 100 100 100 100 100 100 74 100 95 7 44
0 0 20 5 1 31 100 99 70 88 100 100 100 100 100 100 100 100 100 100 100 100 100 100 100 92 55 55 99 99 40 38
0 0 0 5 16 42 51 57 75 97 100 100 100 100 100 100 100 100 100 100 100 100 38 34 95 98 96 48 20 10 38 21

GFSFLT1_prec_cloud_078.txt.gz
Cloud_Cover
100 100 100 100 100 100 100 100 100 100 100 100 100 100 100 100 100 100 100 100 87 86 77 100 100 94 98 67 91 99 76 77
43 99 100 100 100 100 100 100 100 100 100 100 100 100 100 100 100 100 100 100 100 100 97 62 83 98 100 100 100 100 100 90
80 64 100 100 100 92 100 100 100 100 100 98 100 100 100 100 100 100 100 100 100 100 100 100 100 100 100 66 35 83 38 41
100 99 100 100 100 90 100 100 100 100 100 100 70 84 100 100 99 100 100 100 100 100 94 52 98 96 43 51 71 6 62 100
51 86 73 89 79 66 91 100 100 100 100 100 99 94 58 62 100 100 100 100 100 98 55 61 100 97 100 100 74 62 98 100
100 38 5 100 100 75 95 47 100 100 100 100 100 100 100 100 82 72 41 38 99 100 98 96 99 96 64 88 45 31 84 94
6 5 27 60 44 100 100 57 77 70 96 100 100 100 100 100 100 100 100 87 100 100 95 97 100 87 66 29 46 100 100 99
5 5 5 6 33 87 99 100 100 100 100 100 100 100 100 100 100 89 67 98 100 100 40 99 61 5 30 64 79 77 96 100
50 35 93 3 43 7 24 24 60 94 100 100 100 100 100 100 64 37 15 16 30 18 29 17 100 100 100 100 100 100 100 100
4 26 6 90 39 6 4 66 6 1 2 5 5 2 19 5 5 42 5 13 73 96 41 98 100 100 100 100 100 100 100 100
0 0 0 0 11 97 100 59 95 100 93 72 85 94 43 23 84 99 75 18 98 100 100 100 100 100 100 78 80 100 100 81
4 0 0 0 0 8 74 100 58 100 100 100 100 100 40 57 100 100 100 100 100 100 100 100 100 100 100 78 95 90 64 82
5 2 0 0 0 5 43 53 100 99 53 100 100 90 88 100 100 100 100 100 100 100 100 100 100 100 100 100 100 100 100 100
0 5 0 0 0 0 0 1 69 100 100 42 74 92 94 75 100 100 100 100 100 100 100 100 100 100 100 100 100 100 100 100
0 5 2 0 0 0 0 0 0 0 31 70 98 100 92 93 100 100 100 100 100 100 100 100 100 100 100 100 100 100 100 100
5 2 1 4 6 12 27 51 58 27 53 97 100 100 100 100 100 100 100 100 100 100 100 100 100 100 100 100 100 96 100 100
5 32 20 0 5 65 100 100 100 98 100 100 100 100 100 100 100 100 100 100 100 100 100 100 100 100 100 100 100 100 100 100
5 61 68 16 22 93 100 100 100 100 100 100 100 100 100 100 100 100 100 100 100 100 100 100 100 100 100 100 98 87 99 79
5 5 100 100 97 100 100 100 100 100 100 100 100 100 100 100 100 100 100 100 100 100 100 100 100 100 85 100 88 100 25 5

GFSFLT1_prec_cloud_081.txt.gz
Cloud_Cover
100 100 100 100 100 100 100 100 100 100 100 100 100 100 100 100 100 100 100 100 100 100 100 100 100 98 100 97 85 93 89 98
100 100 100 100 100 100 100 100 100 100 100 100 100 100 100 100 100 100 100 100 100 100 100 100 54 97 100 100 100 100 100 100
91 100 100 100 100 100 100 100 100 100 100 100 100 100 100 100 100 100 100 100 100 100 100 100 100 100 100 100 100 100 100 97
100 100 100 100 100 100 100 100 100 100 100 100 100 100 100 100 100 100 100 100 100 100 100 100 100 100 100 100 100 100 100 97
50 100 100 100 100 100 100 100 100 100 100 100 100 96 100 100 100 100 100 100 100 100 100 98 100 91 100 100 99 100 99 73
19 88 100 100 100 100 40 96 98 100 100 100 100 100 100 100 100 99 100 100 100 100 100 100 96 71 49 92 31 95 69 97
35 5 63 68 98 100 100 97 98 100 100 100 100 100 100 100 94 61 34 55 91 88 96 64 66 54 82 89 97 100 100 88
5 0 5 5 16 38 39 87 86 91 95 95 100 100 100 100 100 100 100 100 100 100 100 99 86 91 100 97 96 100 100 89
4 5 2 6 72 5 5 6 5 4 5 5 19 85 99 100 100 100 100 100 100 100 100 100 100 94 98 100 100 100 100 100
0 0 0 3 0 4 5 4 3 39 17 5 5 5 25 85 94 94 99 95 100 100 100 100 100 100 97 100 100 100 99 78
0 0 0 0 0 23 99 74 64 6 7 30 29 29 50 57 41 27 12 52 98 100 98 100 100 100 100 100 100 100 99 100
0 0 0 0 0 14 100 100 91 20 47 94 76 45 39 28 25 96 78 100 100 100 100 100 100 100 100 100 100 100 100 97
2 0 0 0 0 0 1 14 74 100 100 100 86 98 82 69 83 100 100 100 100 100 100 100 100 100 100 100 100 100 100 100
16 0 0 0 0 0 0 0 0 77 100 100 100 100 100 100 100 100 100 100 100 100 100 100 100 100 100 100 100 100 100 100
74 5 4 0 0 0 0 0 0 0 0 0 0 23 47 54 86 100 100 100 100 100 100 100 97 100 100 100 100 100 100 100
75 5 5 5 4 0 0 0 0 1 2 1 32 70 86 100 99 100 100 100 100 100 100 100 100 100 100 100 100 100 100 100
100 100 8 4 13 59 8 36 77 14 98 100 100 100 100 100 100 100 100 100 100 100 100 100 100 100 100 100 100 100 100 100
100 100 6 5 13 90 100 97 99 100 100 100 100 100 100 100 100 100 100 100 100 100 100 100 100 100 100 100 100 100 100 100
58 98 45 91 71 93 100 100 100 100 100 100 100 100 100 100 100 100 100 100 100 100 100 100 100 100 100 100 100 100 100 100

GFSFLT1_prec_cloud_084.txt.gz
Cloud_Cover
100 100 100 100 100 100 100 100 100 100 100 100 100 100 100 100 100 100 100 100 100 100 100 100 100 100 100 100 100 100 100 100
100 100 100 100 100 100 100 100 100 100 100 100 100 100 100 100 100 100 100 100 100 100 100 100 100 100 100 100 100 100 100 100
100 100 100 100 100 100 100 100 100 100 100 100 100 100 100 100 100 100 100 100 100 100 100 100 100 100 100 100 100 100 100 100
100 100 100 100 100 100 100 100 100 100 100 100 100 100 100 100 100 100 100 100 100 100 100 100 100 98 100 100 100 100 100 100
46 78 100 99 100 100 100 100 100 100 100 100 100 100 100 100 100 100 100 100 100 100 100 100 100 100 100 100 100 100 100 100
99 6 62 100 100 100 100 100 84 100 100 100 100 100 100 100 100 100 100 100 100 100 100 100 100 100 100 100 100 100 100 99
0 4 13 41 100 100 100 99 100 93 18 99 100 100 100 100 100 100 100 100 100 100 100 100 100 100 89 95 96 77 71 85
0 36 94 95 100 100 100 98 44 70 100 100 99 100 100 100 100 100 100 100 100 100 100 100 100 100 100 100 97 75 87 58
0 2 32 97 100 100 100 100 56 99 99 61 88 100 100 100 100 100 100 100 100 100 100 100 100 100 100 100 100 94 90 99
0 0 0 0 30 70 89 45 7 5 70 28 90 100 100 99 100 100 100 100 100 93 99 98 100 100 95 100 100 100 100 100
4 5 3 0 0 0 0 38 6 5 5 70 55 26 16 5 6 56 94 99 99 96 100 100 100 100 100 100 100 100 100 100
0 3 5 5 0 1 40 44 43 42 7 5 5 5 25 7 24 58 49 28 83 97 100 100 100 100 100 100 100 100 100 100
5 5 5 0 5 0 0 3 5 5 51 94 100 95 100 16 99 100 100 86 86 100 100 100 100 100 100 100 100 100 100 100
49 6 3 4 3 4 0 0 0 0 89 100 100 100 100 100 100 100 96 75 51 94 100 100 100 100 100 100 100 100 100 100
98 15 95 10 0 1 0 0 0 0 0 1 7 44 16 9 26 15 29 77 85 95 98 100 100 100 100 100 100 100 100 100
100 86 100 98 5 4 0 0 4 0 0 0 0 0 2 3 33 12 37 50 54 93 100 100 100 100 100 100 100 100 100 100
100 100 100 100 100 77 100 5 5 19 4 0 77 100 100 100 100 100 100 100 100 100 100 100 100 100 100 100 100 100 100 100
100 100 100 100 100 100 89 100 82 96 99 94 100 100 100 100 100 100 100 100 100 100 100 100 100 100 100 100 100 100 100 100
100 100 100 75 100 100 100 100 97 100 100 100 100 100 100 100 100 100 100 100 100 100 100 100 100 100 100 100 100 100 100 100

GFSFLT1_prec_cloud_087.txt.gz
Cloud_Cover
50 98 100 100 100 100 100 100 100 100 100 100 100 100 100 100 100 100 100 100 100 100 100 100 100 100 100 100 100 100 100 100
63 100 100 100 100 100 100 100 100 100 100 100 100 100 100 100 100 100 100 100 100 100 100 100 100 100 100 100 100 100 100 100
21 97 100 100 100 100 100 100 100 100 100 100 100 100 100 100 100 100 100 99 100 100 100 100 100 100 100 100 100 100 97 82
7 100 100 100 100 100 100 100 100 100 100 100 100 100 100 100 100 100 100 100 100 100 100 100 100 100 100 100 100 100 99 93
0 90 87 80 50 100 100 100 100 100 100 100 100 100 100 100 100 100 100 100 100 100 100 100 100 100 100 100 100 100 100 94
0 6 37 100 100 100 100 100 100 100 100 100 100 100 100 100 100 100 100 100 100 100 100 100 100 100 100 100 100 100 100 100
0 0 8 44 100 100 100 100 100 100 100 100 100 100 100 100 100 100 100 100 100 100 100 100 100 100 100 100 100 100 100 100
0 0 0 0 75 100 100 100 82 94 100 81 91 100 100 100 100 100 100 100 100 100 100 100 100 100 100 100 100 100 100 99
1 0 0 0 3 100 100 100 100 100 100 94 97 71 100 100 100 100 100 100 100 100 100 100 100 100 100 100 100 100 100 96
5 0 0 0 0 26 100 100 100 80 52 94 46 92 100 100 100 100 100 100 100 100 100 100 100 100 100 94 97 99 100 91
54 4 0 0 0 2 100 100 99 16 29 24 52 100 100 77 48 73 22 12 82 71 89 100 99 92 85 80 86 100 100 100
100 33 2 0 0 0 10 42 10 5 4 7 28 21 5 10 4 5 5 9 13 23 62 93 94 100 98 100 100 100 100 100
92 100 49 4 0 0 0 0 2 5 7 5 5 5 14 100 100 96 32 100 100 20 7 5 82 100 100 100 100 100 100 100
67 43 100 37 4 76 5 0 0 0 10 64 98 70 98 90 72 100 100 100 100 68 25 58 98 95 99 100 100 100 100 100
100 100 37 100 19 100 49 5 0 0 0 0 9 67 57 72 100 100 100 72 83 78 79 100 58 100 100 100 100 100 100 100
100 100 100 87 82 32 100 91 7 3 2 4 1 0 0 0 1 4 1 70 19 17 72 85 96 100 100 100 100 100 100 100
100 100 100 100 86 92 100 100 100 91 6 8 5 4 0 0 0 0 19 60 91 80 100 100 100 100 100 100 100 100 100 100
100 100 100 100 100 99 100 100 100 100 98 5 15 34 36 79 97 100 100 100 100 100 100 100 100 100 100 100 100 100 100 100
100 100 100 100 100 100 100 100 100 100 100 99 100 100 100 100 100 100 100 100 100 100 100 100 100 100 100 100 100 100 100 100

GFSFLT1_prec_cloud_093.txt.gz
Cloud_Cover
0 0 0 65 97 93 100 100 100 100 100 100 100 100 100 100 100 100 100 100 100 100 100 100 100 100 100 100 100 100 100 100
0 0 0 99 100 100 99 100 100 100 100 100 100 100 100 100 100 100 100 100 100 100 100 100 100 98 91 100 100 100 100 100
0 0 0 100 100 100 100 99 75 100 100 100 100 100 100 100 100 100 100 100 100 100 100 100 100 100 100 100 100 100 100 100
0 0 0 95 100 99 98 100 100 98 100 100 100 100 100 100 100 100 100 100 100 100 100 100 100 100 100 100 100 100 100 100
0 0 0 27 100 71 42 96 100 100 100 100 100 100 100 100 100 100 100 100 100 100 100 100 100 100 100 100 100 100 100 100
0 0 0 0 86 100 100 94 100 100 99 100 100 100 100 100 100 100 100 100 100 100 100 100 100 100 100 100 100 100 100 100
0 0 0 0 59 100 100 88 100 100 100 100 100 100 100 100 100 100 100 100 100 100 100 100 100 100 100 100 100 100 100 100
4 5 0 0 0 97 100 100 99 98 100 100 100 100 100 100 100 100 100 100 100 100 100 100 100 100 100 100 100 100 100 100
5 5 4 0 0 0 28 83 100 88 99 100 97 100 100 100 100 100 100 100 100 100 100 100 100 100 100 100 100 100 100 100
5 38 3 0 4 0 0 0 13 92 72 84 96 96 100 100 100 100 100 100 100 100 100 100 100 100 100 100 100 100 100 100
5 7 5 0 5 1 0 0 0 3 66 100 100 100 100 100 100 100 100 100 100 100 100 100 100 100 100 100 100 100 100 100
5 21 6 5 60 29 4 0 0 0 1 20 73 34 100 99 100 100 100 100 100 100 100 100 100 100 100 100 100 100 95 82
49 13 63 3 54 96 62 11 1 1 0 0 14 36 96 100 100 100 70 91 100 100 100 100 53 34 74 12 5 5 13 5
36 53 81 78 5 30 97 100 74 5 0 0 0 0 0 0 38 60 91 57 80 79 47 9 19 42 28 14 16 5 5 67
88 73 97 100 86 85 99 92 100 98 78 42 5 2 0 0 0 5 5 21 88 97 92 67 20 43 26 8 67 5 29 11
82 100 98 100 100 100 100 100 100 99 78 100 100 99 47 7 15 13 11 17 42 29 20 49 36 24 25 28 70 83 97 100
100 68 84 98 100 100 20 5 7 94 90 100 92 100 100 100 100 100 82 31 50 42 36 27 24 96 100 100 100 100 100 100
36 99 82 100 71 99 100 15 5 5 35 65 98 100 100 100 100 100 100 100 95 73 61 100 100 100 100 96 100 100 100 100
74 60 40 100 65 12 77 97 95 12 29 18 5 69 97 84 100 100 100 100 100 100 100 100 100 100 100 100 100 100 100 100

GFSFLT1_prec_cloud_096.txt.gz
Cloud_Cover
0 0 0 0 10 100 100 100 100 90 100 100 100 100 100 100 100 100 100 100 100 100 100 100 100 100 100 100 100 100 100 100
0 0 0 0 98 85 99 100 100 100 100 100 100 100 100 100 100 100 100 100 100 100 100 100 100 100 100 100 100 91 100 100
0 0 0 0 100 100 100 100 95 100 100 100 100 100 100 100 100 100 100 100 100 100 100 100 100 100 100 100 100 100 100 100
0 0 0 0 100 100 100 100 100 100 100 100 100 100 100 100 100 100 100 100 100 100 100 100 100 100 100 100 98 93 98 100
0 0 0 0 100 100 100 100 100 96 100 100 100 100 100 100 100 100 100 100 100 100 100 100 100 100 100 100 100 100 100 100
0 0 0 0 53 91 100 100 100 100 100 99 100 100 100 100 100 100 100 100 100 100 100 100 100 100 100 100 100 100 100 100
2 0 0 0 23 100 100 100 97 99 100 100 100 100 100 100 100 100 100 100 100 100 100 100 100 100 100 100 100 100 100 100
2 0 0 0 0 99 100 100 100 96 100 100 100 100 100 100 100 100 100 100 100 100 100 100 100 100 100 100 100 100 100 100
27 4 0 0 0 24 100 51 100 100 100 100 100 100 100 100 100 100 100 100 100 100 100 100 100 100 100 100 100 100 100 100
100 100 0 0 0 0 0 75 17 95 100 100 100 100 100 100 100 100 100 100 100 100 100 100 100 100 100 100 100 100 100 100
100 100 68 0 0 1 0 0 8 11 100 90 97 16 78 96 100 100 100 100 100 100 100 100 100 100 100 100 100 100 100 100
100 100 100 100 0 4 0 1 0 9 79 65 83 28 0 47 80 100 100 100 100 100 100 100 100 100 100 100 100 100 100 100
97 100 100 100 0 5 0 4 2 1 2 92 100 80 30 47 97 32 100 99 100 100 100 100 100 100 100 100 100 100 100 100
37 98 100 100 39 5 4 5 4 53 6 43 24 100 94 95 83 16 100 100 21 74 100 93 100 100 100 100 100 100 100 97
92 13 81 100 22 5 15 8 38 66 72 99 46 0 2 4 5 2 100 91 84 75 100 100 63 82 92 87 68 100 100 100
100 99 94 91 21 5 6 63 59 100 100 100 33 22 2 38 99 81 52 55 23 5 87 100 100 40 45 21 34 66 95 100
98 100 100 99 100 100 48 86 100 100 100 100 100 43 6 5 5 84 100 100 100 100 100 100 97 58 100 100 70 85 100 100
100 69 96 99 98 49 92 100 100 100 100 100 100 26 5 5 5 45 88 91 99 98 100 100 100 100 100 98 69 100 100 100
90 57 57 100 94 56 35 6 5 71 100 100 100 100 59 14 5 61 82 78 85 100 100 100 100 100 100 100 100 100 100 100